Location: München
(48.1351°N, 11.5820°E)
Time: 03:42:03
(UTC+02:00)

ISS - Pass Details

Date: 18 May 2021
Orbit: 417 x 422 km, 51.6° (Epoch: 13 June)

Event Time Altitude Azimuth Distance (km) Brightness Sun altitude
Rises 01:16:54 0° 289° (WNW) 2,369 0.3 -22.3°
Reaches altitude 10° 01:19:02 10° 294° (WNW) 1,505 -0.7 -22.3°
Maximum altitude 01:22:22 54° 13° (NNE) 515 -3.1 -22.3°
Enters shadow 01:22:37 53° 34° (NE) 527 -3.1 -22.3°
